Погода в Гремячинске

Россия / Пермский край     58°33′45″N   57°51′07″E
темп.,
°C
ветер,
м/с
пор.,
м/с
влажн.,
%
обл.,
%
осадки,
мм/ч
давл.,
гПа
погр.,
м
21 апреля, ср
ср2123:000зсз117811 0.0 103210
02:00−1зсз11805 0.0 103210
05:00−1сз01815 0.0 103210
08:00+3з01695 0.0 1032113
11:00+9з11510 0.0 1032748
14:00+11ююз22430 0.0 10311180
17:00+11ю233926 0.0 10301226
20:00+7ююв1263100 0.0 103011
22 апреля, чт
чт2223:00+4вюв117182 0.0 103110
02:00+2в217599 0.0 103011
05:00+1вюв2178100 0.0 103011
08:00+5ююв31266100 0.0 1029498
11:00+8ю51155100 0.0 10291030
14:00+8ю51261100 0.0 10301299
17:00+6ю51081100 0.1 10301158
20:00+4ююз51097100 0.1 1031944
23 апреля, пт
пт2323:00+4ю4897100 0.8 1030814
02:00+4ю3895100 0.1 1029789
05:00+4ю4798100 0.8 1030727
08:00+2ю3997100 1.9 1030497
11:00+2ю2899100 3.3 1030483
14:00+3ю2697100 0.4 1030653
17:00+4ю2590100 0.5 1030531
20:00+3вюв1195100 0.0 103021
24 апреля, сб
сб2423:00+3вюв1196100 0.0 102912
02:00+3св119699 0.0 102825
05:00+3всв2596100 0.0 1027153
08:00+4всв3992100 0.1 1025402
11:00+5в41191100 0.1 1024546
14:00+5в41092100 0.1 1022591
17:00+5в4994100 1.5 1020479
20:00+5вюв3896100 1.4 1019424
25 апреля, вс
вс2523:00+5вюв3896100 2.0 1018368
02:00+4вюв31090100 0.0 1017346
05:00+3вюв41086100 0.0 1016421
08:00+4вюв4885100 0.0 1015547
11:00+3юв4896100 0.1 1013630
14:00+4юв4997100 0.6 1012789
17:00+5ююв4891100 0.9 1011669
20:00+5ю41097100 3.5 10101105